MPEC 2022-J85 : 2022 JW1
The following Minor Planet Electronic Circular may be linked-to from your own Web pages, but must not otherwise be redistributed electronically.A form allowing access to any MPEC is at the bottom of this page.


M.P.E.C. 2022-J85 Issued 2022 May 10, 23:43 UT The Minor Planet Electronic Circulars contain information on unusual minor planets and routine data on comets. They are published on behalf of Division F of the International Astronomical Union by the Minor Planet Center, Smithsonian Astrophysical Observatory, Cambridge, MA 02138, U.S.A. Prepared using the Tamkin Foundation Computer Network MPC@CFA.HARVARD.EDU URL https://www.minorplanetcenter.net/ ISSN 1523-6714 2022 JW1 Observations: K22J01W* C2022 05 09.27907414 59 06.011+33 10 41.48 20.78GVEJ085V00 K22J01W C2022 05 09.28399014 59 17.732+33 11 49.56 21.66GVEJ085V00 K22J01W C2022 05 09.28888714 59 29.551+33 12 58.43 20.36GVEJ085V00 K22J01W C2022 05 09.29378414 59 41.424+33 14 06.94 20.63GVEJ085V00 K22J01W KC2022 05 09.37818615 03 02.567+33 32 35.20 20.26GVEJ085I52 K22J01W KC2022 05 09.37973115 03 06.278+33 32 54.60 20.37GVEJ085I52 K22J01W KC2022 05 09.38127515 03 09.983+33 33 14.08 20.35GVEJ085I52 K22J01W KC2022 05 09.38282115 03 13.676+33 33 33.88 20.44GVEJ085I52 K22J01W pC2022 05 09.95076015 27 10.86 +35 23 10.3 20.6 GVEJ085L01 K22J01W pC2022 05 09.95268415 27 15.23 +35 23 30.6 20.3 GVEJ085L01 K22J01W pC2022 05 09.95460615 27 19.76 +35 23 51.2 20.4 GVEJ085L01 K22J01W pC2022 05 09.95653015 27 24.09 +35 24 10.0 20.6 GVEJ085L01 K22J01W KC2022 05 10.03715515 30 34.40 +35 37 50.1 20.4 GXEJ085958 K22J01W KC2022 05 10.04106315 30 43.25 +35 38 28.3 20.6 GXEJ085958 K22J01W KC2022 05 10.04497015 30 52.03 +35 39 06.2 XEJ085958 K22J01W KC2022 05 10.15779 15 35 51.94 +35 56 45.4 20.8 RoEJ085291 K22J01W KC2022 05 10.16383 15 36 05.82 +35 57 47.2 20.5 RoEJ085291 K22J01W KC2022 05 10.17001 15 36 20.00 +35 58 51.6 20.4 RoEJ085291 K22J01W KC2022 05 10.19440215 37 05.26 +36 02 56.3 20.2 VuEJ085H21 K22J01W KC2022 05 10.19633115 37 09.59 +36 03 14.7 20.2 VuEJ085H21 K22J01W KC2022 05 10.19826015 37 13.92 +36 03 33.0 20.4 VuEJ085H21 K22J01W KC2022 05 10.20018815 37 18.23 +36 03 51.5 20.4 VuEJ085H21 Observer details: 291 LPL/Spacewatch II. Observer T. H. Bressi. 1.8-m f/2.7 reflector + CCD. 958 Observatoire de Dax. Observer P. Dupouy. 0.50-m f/6 Reflector + CCD. H21 Astronomical Research Observatory, Westfield. Observer R. Holmes. Measurers T. Linder, R. Holmes, L. Horn. 0.76-m f/3.0 astrograph + CCD. I52 Steward Observatory, Mt. Lemmon Station. Observer D. C. Fuls. Measurers E. J. Christensen, D. Fay, J. B. Fazekas, D. C. Fuls, A. R. Gibbs, A. D. Grauer, H. Groeller, J. K. Hogan, R. A. Kowalski, S. M. Larson, G. J. Leonard, D. Rankin, R. L. Seaman, A. Serrano, F. C. Shelly, K. W. Wierzchos. 1.0-m prime focus + CCD. L01 Visnjan Observatory, Tican. Observer K. Korlevic. 1.0-m f/2.9 reflector + CCD. V00 Kitt Peak-Bok. Observer H. Groeller. Measurers M. J. Brucker, E. J. Christensen, C. E. Woodward, G. A. Farneth, J. B. Fazekas, D. C. Fuls, A. R. Gibbs, A. D. Grauer, H. Groeller, R. A. Kowalski, S. M. Larson, G. J. Leonard, R. S. McMillan, D. Rankin, R. L. Seaman, A. Serrano, F. C. Shelly, K. W. Wierzchos. 2.25-m reflector + 4x4K mosaic CCD. Orbital elements: 2022 JW1 Earth MOID = 0.0158 AU Epoch 2022 Jan. 21.0 TT = JDT 2459600.5 Veres M 306.26320 (2000.0) P Q n 0.50204210 Peri. 4.52939 -0.68573443 +0.72145049 a 1.5678673 Node 222.22034 -0.67221282 -0.67849004 e 0.3477420 Incl. 8.24096 -0.27910253 -0.13842131 P 1.96 H 27.18 G 0.15 U 7 Residuals in seconds of arc 220509 V00 (0.9- 0.8-) 220509 L01 0.1- 0.0 220510 291 0.1+ 0.6- 220509 V00 (1.5- 1.1-) 220509 L01 0.7- 0.2+ 220510 291 0.1+ 0.3+ 220509 V00 0.1- 0.1+ 220509 L01 0.7+ 0.9+ 220510 H21 0.3- 0.1+ 220509 V00 (2.0+ 1.2+) 220509 L01 0.4- 0.3- 220510 H21 0.1- 0.0 220509 I52 0.0 0.0 220510 958 0.0 1.3- 220510 H21 0.1+ 0.1- 220509 I52 0.1+ 0.2- 220510 958 0.4- 1.0- 220510 H21 0.1+ 0.1+ 220509 I52 0.2+ 0.2- 220510 958 1.7- 0.9- 220509 I52 0.0 0.1+ 220510 291 0.3+ 0.1- Ephemeris: 2022 JW1 a,e,i = 1.57, 0.35, 8 q = 1.0227 Date TT R. A. (2000) Decl. Delta r Elong. Phase V 2022 04 10 09 21 25.2 -26 47 57 0.1031 1.0599 122.0 53.2 24.3 ... 2022 04 25 09 54 55.0 -19 53 47 0.04974 1.0309 119.1 58.5 22.8 ... 2022 05 03 11 21 07.8 -02 26 36 0.02472 1.0238 129.5 49.4 21.0 ... 2022 05 09 14 46 57.8 +32 03 12 0.02016 1.0226 130.6 48.5 20.6 2022 05 10 15 29 05.5 +35 32 32 0.02174 1.0227 126.7 52.3 20.8 2022 05 11 16 07 16.5 +37 42 22 0.02381 1.0230 123.0 55.9 21.1 ... 2022 05 17 18 18 18.7 +38 38 54 0.04152 1.0264 110.5 67.3 22.7 ... 2022 05 25 19 12 34.9 +35 49 06 0.06910 1.0364 108.2 68.2 23.9 ... 2022 06 09 19 38 28.2 +32 04 05 0.1209 1.0704 114.2 59.9 24.9 M. P. C. Staff (C) Copyright 2022 MPC M.P.E.C. 2022-J85


Enter an MPEC number in one of the following forms:
- 1997-B01 (the full form)
- J97B01 (the packed version of the full form)
- B01 (the abbreviated form)